Orbital Elements at Epoch 2459200.5 (2020-Dec-17.0) TDB
Reference: JPL 30 (heliocentric ecliptic J2000)
Element | Value | Uncertainty (1-sigma) | Units |
e | .07230001878698127 | 3.671e-08 | |
a | 2.444246619078987 | 7.2407e-09 | au |
q | 2.267527542599561 | 9.1675e-08 | au |
i | 2.880711447563471 | 3.018e-06 | deg |
node | 69.39220936965235 | 7.1015e-05 | deg |
peri | 142.4074080830465 | 7.46e-05 | deg |
M | 294.0538766677921 | 2.3931e-05 | deg |
tp | 2459456.183516853630 (2021-Aug-29.68351685) | 9.3084e-05 | TDB |
period | 1395.77675557392 3.82 | 6.2022e-06 1.698e-08 | d yr |
n | .2579209021517012 | 1.1461e-09 | deg/d |
Q | 2.620965695558413 | 7.7642e-09 | au |
|
| | Orbit Determination Parameters
Additional Information
|